Hourly Data Report for July 08, 2019

TORONTO CITY
ONTARIO
Current Station Operator: ECCC - MSC

43°40'00.000" N
79°24'00.000" W
112.50 m
6158355
71508
XTO

Download Data

Hourly Data (July 2019)
Hourly Data Report for July 8, 2019
TIME
LST
Temp Definition
°C
Dew Point Definition
°C
Rel Hum Definition
%
Precip. Amount Definition
mm

Wind Dir Definition
10's deg

Wind Spd Definition
km/h
Visibility Definition
km
Stn Press Definition
kPa
Hmdx Definition


Wind Chill Definition


Weather Definition


00:00 18.0 9.2 56 0.0       100.31     LegendNANA
01:00 18.8 10.5 59 0.0       100.28     LegendNANA
02:00 17.8 9.3 57 0.0       100.25     LegendNANA
03:00 16.8 9.4 62 0.0       100.24     LegendNANA
04:00 17.7 9.7 59 0.0       100.28     LegendNANA
05:00 16.8 10.0 64 0.0       100.32     LegendNANA
06:00 17.1 11.0 67 0.0       100.35     LegendNANA
07:00 19.0 11.6 62 0.0       100.41     LegendNANA
08:00 20.8 10.5 52 0.0       100.43     LegendNANA
09:00 23.0 9.6 43 0.0       100.43     LegendNANA
10:00 24.3 10.2 41 0.0       100.41 26   LegendNANA
11:00 24.0 10.2 42 0.0       100.38 25   LegendNANA
12:00 23.8 12.4 49 0.0       100.38 26   LegendNANA
13:00 25.0 10.1 39 0.0       100.37 26   LegendNANA
14:00 24.5 7.0 33 0.0       100.34 25   LegendNANA
15:00 24.4 6.3 31 0.0       100.36     LegendNANA
16:00 24.6 7.4 33 0.0       100.33 25   LegendNANA
17:00 23.8 7.3 35 0.0       100.31     LegendNANA
18:00 22.9 6.2 34 0.0       100.33     LegendNANA
19:00 22.5 6.0 34 0.0       100.34     LegendNANA
20:00 21.1 5.8 37 0.0       100.35     LegendNANA
21:00 19.8 5.0 38 0.0       100.35     LegendNANA
22:00 19.0 6.2 43 0.0       100.34     LegendNANA
23:00 18.9 5.7 42 0.0       100.32     LegendNANA

Notes on Data Quality.

Legend

  • E = Estimated
  • M = Missing
  • NA = Not Available*
  • [empty] = Indicates an unobserved value
Date modified: